VA7VRN-8 Weather Reports


Display with metric or nautical units.
time (UTC)temp
F
wind
direction
speed
MPH
gust
MPH
rain 1hr
in
rain 24hr
in
rain mn
in
humidity
%
barometer
mb
20210730130919 55 315 0.0 0.0 0.00 0.00 0.00 46 1014.7
20210730130413 55 315 0.0 2.0 0.00 0.00 0.00 46 1014.6
20210730125906 55 315 2.0 2.0 0.00 0.00 0.00 46 1014.6
20210730125400 55 315 2.0 2.0 0.00 0.00 0.00 46 1014.5
20210730124854 55 0 1.0 1.0 0.00 0.00 0.00 46 1014.5
20210730124348 56 90 0.0 2.0 0.00 0.00 0.00 46 1014.5
20210730123842 56 90 2.0 3.0 0.00 0.00 0.00 46 1014.5
20210730123335 56 45 0.0 0.0 0.00 0.00 0.00 46 1014.4
20210730122829 56 45 0.0 1.0 0.00 0.00 0.00 46 1014.3
20210730122323 56 45 1.0 3.0 0.00 0.00 0.00 46 1014.2
20210730121817 56 45 2.0 2.0 0.00 0.00 0.00 46 1014.1
20210730121311 56 90 1.0 2.0 0.00 0.00 0.00 46 1014.2
20210730120804 56 90 1.0 1.0 0.00 0.00 0.00 46 1014.1
20210730115246 57 90 0.0 0.0 0.00 0.00 0.00 46 1014.0
20210730114740 57 90 0.0 2.0 0.00 0.00 0.00 45 1013.9
20210730114234 57 0 2.0 3.0 0.00 0.00 0.00 45 1013.8
20210730113727 57 45 1.0 1.0 0.00 0.00 0.00 45 1013.9
20210730112715 57 45 1.0 1.0 0.00 0.00 0.00 45 1013.8
20210730112209 57 315 0.0 2.0 0.00 0.00 0.00 45 1013.7
20210730111703 58 45 0.0 5.0 0.00 0.00 0.00 45 1013.7
20210730111156 58 342 4.0 4.0 0.00 0.00 0.00 45 1013.7
20210730110650 58 45 1.0 2.0 0.00 0.00 0.00 45 1013.7
20210730110144 58 0 1.0 3.0 0.00 0.00 0.00 45 1013.7
20210730105638 58 0 2.0 2.0 0.00 0.00 0.00 45 1013.6
20210730105132 58 90 1.0 3.0 0.00 0.00 0.00 45 1013.7
20210730104626 58 0 2.0 4.0 0.00 0.00 0.00 45 1013.6
20210730103613 58 315 0.0 1.0 0.00 0.00 0.00 45 1013.7
20210730102601 59 270 1.0 2.0 0.00 0.00 0.00 45 1013.5
20210730102055 59 22 3.0 3.0 0.00 0.00 0.00 45 1013.5
20210730101653 59 45 3.0 3.0 0.00 0.00 0.00 45 1013.5
20210730101548 59 45 3.0 3.0 0.00 0.00 0.00 45 1013.5
20210730101042 59 22 2.0 3.0 0.00 0.00 0.00 45 1013.5
20210730100536 59 45 3.0 3.0 0.00 0.00 0.00 45 1013.5
20210730095520 59 0 1.0 2.0 0.00 0.00 0.00 45 1013.6
20210730095013 59 67 2.0 3.0 0.00 0.00 0.00 45 1013.5
20210730094507 59 45 1.0 2.0 0.00 0.00 0.00 45 1013.5
20210730093455 60 45 0.0 1.0 0.00 0.00 0.00 44 1013.4
20210730092949 60 45 0.0 1.0 0.00 0.00 0.00 44 1013.4
20210730092443 60 45 0.0 0.0 0.00 0.00 0.00 44 1013.3
20210730091936 60 45 0.0 1.0 0.00 0.00 0.00 44 1013.4
20210730091430 60 0 1.0 1.0 0.00 0.00 0.00 44 1013.4
20210730090417 61 0 1.0 2.0 0.00 0.00 0.00 44 1013.2
20210730085912 61 112 0.0 0.0 0.00 0.00 0.00 44 1013.3
20210730085405 61 112 0.0 0.0 0.00 0.00 0.00 44 1013.2
20210730084859 61 112 0.0 0.0 0.00 0.00 0.00 44 1013.3
20210730084353 61 112 0.0 0.0 0.00 0.00 0.00 44 1013.2
20210730083847 61 90 0.0 0.0 0.00 0.00 0.00 43 1013.0
20210730083340 62 90 1.0 2.0 0.00 0.00 0.00 43 1013.1
20210730082835 62 67 1.0 2.0 0.00 0.00 0.00 43 1013.2
20210730082328 62 45 2.0 2.0 0.00 0.00 0.00 43 1013.0
20210730081822 62 45 1.0 3.0 0.00 0.00 0.00 43 1013.1
20210730081316 63 0 1.0 1.0 0.00 0.00 0.00 43 1013.1
20210730080810 63 90 1.0 1.0 0.00 0.00 0.00 43 1013.1
20210730080304 63 45 0.0 0.0 0.00 0.00 0.00 43 1013.1
20210730075757 63 135 0.0 1.0 0.00 0.00 0.00 43 1013.1
20210730075251 63 135 1.0 2.0 0.00 0.00 0.00 43 1013.2
20210730074745 63 135 0.0 1.0 0.00 0.00 0.00 43 1013.0
20210730074239 64 135 0.0 0.0 0.00 0.00 0.00 42 1012.9
20210730073733 64 135 0.0 2.0 0.00 0.00 0.00 42 1012.9
20210730072720 64 135 1.0 1.0 0.00 0.00 0.00 42 1012.7
20210730072214 65 135 0.0 1.0 0.00 0.00 0.00 42 1012.6
20210730071708 65 135 0.0 0.0 0.00 0.00 0.00 42 1012.6
20210730071202 65 135 0.0 4.0 0.00 0.00 0.00 42 1012.6
20210730070656 65 315 4.0 5.0 0.00 0.00 0.00 42 1012.6
20210730070148 65 315 4.0 4.0 0.00 0.00 0.00 42 1012.5
20210730065642 65 342 5.0 7.0 0.00 0.00 0.00 42 1012.6
20210730065137 66 0 3.0 3.0 0.00 0.00 0.00 41 1012.6
20210730064630 66 315 0.0 1.0 0.00 0.00 0.00 41 1012.5
20210730064125 66 315 2.0 2.0 0.00 0.00 0.00 41 1012.4
20210730063619 66 0 2.0 3.0 0.00 0.00 0.00 41 1012.3
20210730063112 67 0 1.0 2.0 0.00 0.00 0.00 41 1012.3
20210730062606 67 49 2.0 2.0 0.00 0.00 0.00 41 1012.4
20210730062100 67 90 1.0 1.0 0.00 0.00 0.00 40 1012.3
20210730061553 68 45 0.0 1.0 0.00 0.00 0.00 40 1012.3
20210730061048 68 315 1.0 1.0 0.00 0.00 0.00 40 1012.3
20210730060540 68 315 2.0 2.0 0.00 0.00 0.00 40 1012.3
20210730060034 68 0 2.0 3.0 0.00 0.00 0.00 40 1012.2
20210730055019 69 90 2.0 2.0 0.00 0.00 0.00 39 1012.2
20210730054511 69 0 1.0 2.0 0.00 0.00 0.00 39 1012.1
20210730054006 70 0 3.0 3.0 0.00 0.00 0.00 39 1012.1
20210730053459 70 0 2.0 2.0 0.00 0.00 0.00 39 1012.0
20210730051942 71 90 1.0 1.0 0.00 0.00 0.00 38 1011.9
20210730050929 72 355 2.0 2.0 0.00 0.00 0.00 37 1011.8
20210730050423 72 0 1.0 2.0 0.00 0.00 0.00 37 1011.8
20210730045917 73 67 1.0 2.0 0.00 0.00 0.00 37 1011.6
20210730044905 74 90 1.0 2.0 0.00 0.00 0.00 37 1011.6
20210730044358 74 0 2.0 4.0 0.00 0.00 0.00 36 1011.5
20210730043851 74 319 3.0 6.0 0.00 0.00 0.00 36 1011.5
20210730043345 75 319 5.0 6.0 0.00 0.00 0.00 36 1011.4
20210730042840 75 319 7.0 7.0 0.00 0.00 0.00 36 1011.4
20210730042332 75 333 4.0 5.0 0.00 0.00 0.00 35 1011.4
20210730041828 76 315 4.0 5.0 0.00 0.00 0.00 35 1011.4
20210730040815 77 337 6.0 8.0 0.00 0.00 0.00 35 1011.2
20210730040309 77 333 6.0 7.0 0.00 0.00 0.00 35 1011.1
20210730035803 77 351 6.0 6.0 0.00 0.00 0.00 34 1011.1
20210730035257 78 0 5.0 6.0 0.00 0.00 0.00 34 1011.1
20210730033738 79 319 7.0 9.0 0.00 0.00 0.00 34 1010.8
20210730032726 79 319 7.0 10.0 0.00 0.00 0.00 33 1010.8
20210730032218 80 315 7.0 8.0 0.00 0.00 0.00 33 1010.8
20210730031712 80 319 6.0 7.0 0.00 0.00 0.00 32 1010.8
20210730031206 81 342 6.0 6.0 0.00 0.00 0.00 32 1010.8
20210730030701 81 355 5.0 7.0 0.00 0.00 0.00 32 1010.7
20210730025649 82 0 5.0 6.0 0.00 0.00 0.00 31 1010.7
20210730025142 83 355 5.0 7.0 0.00 0.00 0.00 31 1010.6
20210730024635 83 319 8.0 9.0 0.00 0.00 0.00 31 1010.6
20210730024130 84 319 5.0 8.0 0.00 0.00 0.00 30 1010.5
20210730023624 84 328 5.0 10.0 0.00 0.00 0.00 30 1010.6
20210730023116 84 342 8.0 10.0 0.00 0.00 0.00 30 1010.5
20210730022612 85 328 7.0 10.0 0.00 0.00 0.00 29 1010.6
20210730022105 85 319 7.0 8.0 0.00 0.00 0.00 29 1010.5
20210730021558 86 333 7.0 8.0 0.00 0.00 0.00 29 1010.5
20210730021052 86 342 7.0 10.0 0.00 0.00 0.00 29 1010.5
20210730020546 86 0 5.0 9.0 0.00 0.00 0.00 28 1010.6
20210730020041 87 0 8.0 12.0 0.00 0.00 0.00 28 1010.6
20210730015535 87 346 12.0 12.0 0.00 0.00 0.00 28 1010.6
20210730015027 87 0 11.0 11.0 0.00 0.00 0.00 28 1010.6
20210730014015 88 342 8.0 13.0 0.00 0.00 0.00 27 1010.5
20210730013508 88 351 9.0 12.0 0.00 0.00 0.00 27 1010.6
20210730013002 88 328 7.0 12.0 0.00 0.00 0.00 27 1010.5
20210730012456 89 0 8.0 12.0 0.00 0.00 0.00 26 1010.5
20210730011950 89 0 9.0 11.0 0.00 0.00 0.00 26 1010.5
20210730011444 89 319 7.0 11.0 0.00 0.00 0.00 26 1010.5
20210730010938 89 337 10.0 12.0 0.00 0.00 0.00 26 1010.5
20210730010433 90 315 9.0 12.0 0.00 0.00 0.00 26 1010.6
20210730005925 90 324 8.0 11.0 0.00 0.00 0.00 25 1010.6
20210730005419 90 342 8.0 12.0 0.00 0.00 0.00 25 1010.7
20210730004913 90 337 14.0 15.0 0.00 0.00 0.00 25 1010.6
20210730004408 91 346 10.0 14.0 0.00 0.00 0.00 25 1010.6
20210730004015 91 351 8.0 14.0 0.00 0.00 0.00 25 1010.7
20210730003901 91 351 8.0 14.0 0.00 0.00 0.00 25 1010.7
20210730002848 91 351 8.0 12.0 0.00 0.00 0.00 24 1010.7
20210730002342 91 0 9.0 13.0 0.00 0.00 0.00 24 1010.9
20210730001836 91 0 11.0 13.0 0.00 0.00 0.00 24 1010.8
20210730001330 91 355 11.0 13.0 0.00 0.00 0.00 24 1010.8
20210730000825 91 351 12.0 14.0 0.00 0.00 0.00 24 1010.9
20210730000317 91 0 9.0 13.0 0.00 0.00 0.00 24 1010.9
20210729235812 91 346 10.0 14.0 0.00 0.00 0.00 24 1011.0
20210729235306 92 342 11.0 13.0 0.00 0.00 0.00 24 1010.9
20210729234759 92 355 8.0 15.0 0.00 0.00 0.00 24 1011.1
20210729234252 92 9 13.0 15.0 0.00 0.00 0.00 24 1011.1
20210729233746 92 0 11.0 12.0 0.00 0.00 0.00 24 1011.1
20210729233240 92 0 13.0 18.0 0.00 0.00 0.00 24 1011.1
20210729232734 92 0 10.0 16.0 0.00 0.00 0.00 24 1011.1
20210729231722 92 13 18.0 18.0 0.00 0.00 0.00 24 1011.2
20210729230709 92 9 13.0 17.0 0.00 0.00 0.00 24 1011.3
20210729230203 92 351 14.0 17.0 0.00 0.00 0.00 24 1011.4
20210729225658 91 0 11.0 19.0 0.00 0.00 0.00 24 1011.4
20210729225151 91 9 14.0 16.0 0.00 0.00 0.00 24 1011.5
20210729224645 91 351 14.0 16.0 0.00 0.00 0.00 24 1011.4
20210729223632 91 0 13.0 16.0 0.00 0.00 0.00 25 1011.5
20210729223126 91 355 14.0 15.0 0.00 0.00 0.00 25 1011.6
20210729222620 91 0 14.0 17.0 0.00 0.00 0.00 25 1011.6
20210729221607 90 355 14.0 18.0 0.00 0.00 0.00 25 1011.6
20210729221101 90 0 16.0 19.0 0.00 0.00 0.00 25 1011.7
20210729220556 90 355 14.0 18.0 0.00 0.00 0.00 25 1011.7
20210729220049 90 355 16.0 18.0 0.00 0.00 0.00 25 1011.8
20210729215543 90 0 16.0 19.0 0.00 0.00 0.00 25 1011.9
20210729215037 90 0 11.0 19.0 0.00 0.00 0.00 25 1011.9
20210729214530 89 4 15.0 19.0 0.00 0.00 0.00 25 1012.1
20210729214024 89 355 13.0 19.0 0.00 0.00 0.00 26 1012.2
20210729213518 89 355 17.0 17.0 0.00 0.00 0.00 26 1012.2
20210729213012 89 342 13.0 15.0 0.00 0.00 0.00 26 1012.3
20210729212506 89 328 15.0 17.0 0.00 0.00 0.00 26 1012.4
20210729212029 89 351 6.0 17.0 0.00 0.00 0.00 26 1012.5
20210729211017 89 4 10.0 12.0 0.00 0.00 0.00 26 1012.5
20210729210513 88 0 15.0 15.0 0.00 0.00 0.00 26 1012.6
20210729210005 88 346 14.0 18.0 0.00 0.00 0.00 26 1012.7
20210729205459 88 342 13.0 15.0 0.00 0.00 0.00 26 1012.8
20210729204952 88 355 10.0 13.0 0.00 0.00 0.00 27 1012.9
20210729204448 87 337 12.0 15.0 0.00 0.00 0.00 27 1012.9
20210729203940 87 0 13.0 17.0 0.00 0.00 0.00 27 1013.0
20210729203434 86 355 14.0 15.0 0.00 0.00 0.00 28 1013.1
20210729202928 86 0 10.0 17.0 0.00 0.00 0.00 28 1013.1
20210729201916 85 351 11.0 14.0 0.00 0.00 0.00 28 1013.3
20210729201409 85 333 14.0 14.0 0.00 0.00 0.00 28 1013.4
20210729200904 85 355 12.0 16.0 0.00 0.00 0.00 29 1013.5
20210729200357 84 342 9.0 14.0 0.00 0.00 0.00 29 1013.4
20210729195851 84 0 12.0 13.0 0.00 0.00 0.00 29 1013.5
20210729195344 84 342 10.0 12.0 0.00 0.00 0.00 29 1013.6
20210729194838 83 328 11.0 11.0 0.00 0.00 0.00 30 1013.7
20210729194332 83 337 11.0 11.0 0.00 0.00 0.00 30 1013.7
20210729193826 82 337 8.0 12.0 0.00 0.00 0.00 30 1013.9
20210729193320 82 355 11.0 11.0 0.00 0.00 0.00 30 1014.0
20210729192814 82 351 9.0 12.0 0.00 0.00 0.00 30 1014.1
20210729192307 82 355 9.0 10.0 0.00 0.00 0.00 30 1014.1
20210729191801 81 355 4.0 9.0 0.00 0.00 0.00 30 1014.3
20210729191255 81 337 7.0 10.0 0.00 0.00 0.00 30 1014.3
20210729190243 81 315 8.0 9.0 0.00 0.00 0.00 31 1014.4
20210729185736 80 27 8.0 10.0 0.00 0.00 0.00 31 1014.5
20210729185230 80 315 8.0 8.0 0.00 0.00 0.00 31 1014.6
20210729184724 80 355 6.0 9.0 0.00 0.00 0.00 31 1014.6
20210729184219 80 337 7.0 8.0 0.00 0.00 0.00 31 1014.7
20210729183712 80 351 4.0 7.0 0.00 0.00 0.00 31 1014.8
20210729182659 79 0 5.0 8.0 0.00 0.00 0.00 31 1014.8
20210729182153 79 0 6.0 7.0 0.00 0.00 0.00 31 1014.9
20210729181647 79 351 4.0 6.0 0.00 0.00 0.00 31 1015.0
20210729181141 78 333 3.0 5.0 0.00 0.00 0.00 31 1015.0
20210729180635 78 346 3.0 6.0 0.00 0.00 0.00 31 1015.0
20210729180128 78 0 5.0 5.0 0.00 0.00 0.00 31 1015.1
20210729175624 77 355 4.0 5.0 0.00 0.00 0.00 31 1015.1
20210729175116 77 355 3.0 5.0 0.00 0.00 0.00 32 1015.2
20210729174610 77 324 5.0 6.0 0.00 0.00 0.00 32 1015.2
20210729174104 76 40 4.0 7.0 0.00 0.00 0.00 32 1015.3
20210729173558 76 328 5.0 5.0 0.00 0.00 0.00 32 1015.3
20210729173051 75 36 5.0 5.0 0.00 0.00 0.00 33 1015.4
20210729172545 75 27 4.0 5.0 0.00 0.00 0.00 33 1015.3
20210729172039 75 346 3.0 4.0 0.00 0.00 0.00 33 1015.4
20210729171533 74 351 4.0 4.0 0.00 0.00 0.00 33 1015.4
20210729171027 74 324 2.0 4.0 0.00 0.00 0.00 34 1015.3
20210729170520 73 297 2.0 2.0 0.00 0.00 0.00 34 1015.3
20210729170014 72 324 3.0 4.0 0.00 0.00 0.00 35 1015.4
20210729165509 72 0 2.0 2.0 0.00 0.00 0.00 35 1015.4
20210729165004 71 315 1.0 1.0 0.00 0.00 0.00 36 1015.5
20210729163951 69 315 1.0 1.0 0.00 0.00 0.00 37 1015.4
20210729163445 69 117 0.0 1.0 0.00 0.00 0.00 37 1015.5
20210729162937 68 4 2.0 4.0 0.00 0.00 0.00 37 1015.6
20210729162432 68 328 3.0 4.0 0.00 0.00 0.00 38 1015.5
20210729161420 66 0 3.0 4.0 0.00 0.00 0.00 38 1015.6
20210729160914 66 346 1.0 3.0 0.00 0.00 0.00 39 1015.5
20210729160408 65 315 3.0 3.0 0.00 0.00 0.00 39 1015.4
20210729155355 64 288 0.0 2.0 0.00 0.00 0.00 40 1015.5
20210729154849 64 337 1.0 2.0 0.00 0.00 0.00 40 1015.4
20210729153835 63 315 2.0 2.0 0.00 0.00 0.00 40 1015.4
20210729153329 62 319 1.0 3.0 0.00 0.00 0.00 41 1015.5
20210729152317 61 4 3.0 7.0 0.00 0.00 0.00 41 1015.4
20210729151811 61 27 4.0 7.0 0.00 0.00 0.00 41 1015.5
20210729151306 61 0 4.0 4.0 0.00 0.00 0.00 41 1015.4
20210729150758 60 0 4.0 4.0 0.00 0.00 0.00 42 1015.5
20210729150252 60 81 1.0 2.0 0.00 0.00 0.00 42 1015.5
20210729145746 59 315 0.0 2.0 0.00 0.00 0.00 42 1015.5
20210729145240 59 297 2.0 2.0 0.00 0.00 0.00 42 1015.5
20210729144735 58 315 1.0 3.0 0.00 0.00 0.00 43 1015.5
20210729144227 58 315 2.0 3.0 0.00 0.00 0.00 43 1015.5
20210729143721 57 315 2.0 3.0 0.00 0.00 0.00 43 1015.5
20210729143215 56 355 2.0 4.0 0.00 0.00 0.00 44 1015.6
20210729142709 56 351 2.0 4.0 0.00 0.00 0.00 44 1015.4
20210729142203 56 315 3.0 3.0 0.00 0.00 0.00 44 1015.4
20210729141656 55 319 2.0 3.0 0.00 0.00 0.00 45 1015.3
20210729140644 54 45 0.0 2.0 0.00 0.00 0.00 45 1015.2
20210729140138 54 0 1.0 1.0 0.00 0.00 0.00 45 1015.2
20210729135632 54 135 0.0 0.0 0.00 0.00 0.00 45 1015.1
20210729135126 54 135 0.0 1.0 0.00 0.00 0.00 45 1015.1
20210729134619 53 45 0.0 1.0 0.00 0.00 0.00 45 1014.9
20210729133607 53 0 0.0 1.0 0.00 0.00 0.00 45 1014.8
20210729132555 53 45 1.0 1.0 0.00 0.00 0.00 45 1014.8
20210729132049 54 90 0.0 1.0 0.00 0.00 0.00 45 1014.9
20210729131542 54 90 1.0 1.0 0.00 0.00 0.00 45 1014.7